Main page
METAR-TAF:

METAR-TAF

Airports :

Abadeh, Iran

Abadeh Airport

latitude: 31-11N, longitude: 052-40E, elevation: 2004 m

Current weather observation

The report was made 1 hour and 13 minutes ago, at 16:00 UTC
Wind 8 kt from the Southwest
Temperature 30°C
Humidity 5%
Pressure 1016 hPa
Visibility 10 km or more
no clouds below 1500 m and no cumulonimbus

METAR: OISA 231600Z 23008KT CAVOK 30/M13 Q1016

Time: 21:43 (17:13 UTC)


TAF: missing

Weather observations and forecasts of more than 4000 airports (METAR and TAF reports).

The available stations are represented by yellow and red dots on the map.

Hover mouse over dot to see the name of the station.

Then click to see weather observations and forecasts.

To change the map : click on the green buttons with a black cross to zoom in, on the green button with a dash to zoom out, or on the green arrows for adjacent maps.


METAR-TAF: